Weather in Ali-Berdukovskiy

Russia / Karachay-Cherkess Republic     43°59′33″N   41°44′30″E
temp.,
°C
wind,
m/s
gust,
m/s
humid.,
%
clouds,
%
prec.,
mm/h
press.,
hPa
HPBL,
m
21 april, wed
wed2100:00+9ne358397 0.0 1012403
03:00+7ene238480 0.0 101450
06:00+7n3488100 0.3 1016240
09:00+7ne3390100 0.9 1018391
12:00+7n3396100 0.4 1019360
15:00+6nne3397100 0.5 1020410
18:00+6ne2296100 0.0 1021311
21:00+6ne1194100 0.0 1022162
22 april, thu
thu2200:00+6s129463 0.0 1021144
03:00+6s1193100 0.0 102114
06:00+6wsw009499 0.0 102116
09:00+8ene1188100 0.7 1021293
12:00+11ne3379100 0.3 1020761
15:00+10nne3384100 0.8 1020595
18:00+8n1292100 0.6 1021135
21:00+7wnw2497100 1.9 1022383
23 april, fri
fri2300:00+6wsw2295100 4.3 1023148
03:00+6sw2393100 6.8 1023193
06:00+6sw239391 0.5 1024170
09:00+9wsw227451 0.6 1024806
12:00+12n225796 0.1 10221560
15:00+12n335628 0.1 10211049
18:00+11nne346771 0.0 1020554
21:00+7e2180100 0.0 102013
24 april, sat
sat2400:00+7s3381100 0.0 101852
03:00+7ssw3360100 0.0 101968
06:00+7ssw2367100 0.1 102053
09:00+11s136099 0.1 1018747
12:00+15n33487 0.0 10171347
15:00+15n435644 0.1 10171209
18:00+10n3584100 0.9 1019279
21:00+9nne1284100 0.9 102059
25 april, sun
sun2500:00+8nne2288100 0.0 102044
03:00+7ne239299 0.0 1020172
06:00+6nne3396100 0.0 1020288
09:00+6nne3397100 0.1 1019465
12:00+6n4497100 0.6 1019410
15:00+4nne3397100 0.8 1019417
18:00+4n3398100 0.1 1018488
21:00+4n1198100 1.4 1018161